| time (UTC) | temp C | wind direction | speed KPH | gust KPH | rain 1hr cm | rain 24hr cm | rain mn cm | humidity % | barometer mb |
| 20260502195049 | 9 | 347 | 0.0 | 4.8 | 0.00 | 0.00 | 0.00 | 56 | 1016.0 |
| 20260502194535 | 8 | 281 | 1.6 | 3.2 | 0.00 | 0.00 | 0.00 | 57 | 1016.1 |
| 20260502194057 | 8 | 302 | 0.0 | 6.4 | 0.00 | 0.00 | 0.00 | 56 | 1016.1 |
| 20260502193540 | 8 | 330 | 1.6 | 8.0 | 0.00 | 0.00 | 0.00 | 55 | 1016.1 |
| 20260502193111 | 8 | 277 | 3.2 | 8.0 | 0.00 | 0.00 | 0.00 | 55 | 1016.2 |
| 20260502192535 | 8 | 272 | 1.6 | 6.4 | 0.00 | 0.00 | 0.00 | 55 | 1016.2 |
| 20260502192100 | 8 | 325 | 0.0 | 6.4 | 0.00 | 0.00 | 0.00 | 55 | 1016.2 |
| 20260502191544 | 9 | 321 | 0.0 | 8.0 | 0.00 | 0.00 | 0.00 | 54 | 1016.3 |
| 20260502191050 | 9 | 261 | 3.2 | 8.0 | 0.00 | 0.00 | 0.00 | 55 | 1016.3 |
| 20260502190537 | 8 | 317 | 1.6 | 4.8 | 0.00 | 0.00 | 0.00 | 56 | 1016.3 |
| 20260502190042 | 8 | 269 | 1.6 | 8.0 | 0.00 | 0.00 | 0.00 | 57 | 1016.4 |
| 20260502185547 | 8 | 304 | 1.6 | 8.0 | 0.00 | 0.00 | 0.00 | 56 | 1016.4 |
| 20260502185053 | 9 | 360 | 3.2 | 8.0 | 0.00 | 0.00 | 0.00 | 55 | 1016.4 |
| 20260502184540 | 9 | 306 | 1.6 | 8.0 | 0.00 | 0.00 | 0.00 | 55 | 1016.5 |
| 20260502184047 | 9 | 351 | 3.2 | 8.0 | 0.00 | 0.00 | 0.00 | 53 | 1016.5 |
| 20260502183534 | 9 | 360 | 1.6 | 8.0 | 0.00 | 0.00 | 0.00 | 53 | 1016.5 |
| 20260502183055 | 8 | 313 | 3.2 | 8.0 | 0.00 | 0.00 | 0.00 | 55 | 1016.5 |
| 20260502182541 | 8 | 355 | 3.2 | 8.0 | 0.00 | 0.00 | 0.00 | 54 | 1016.6 |
| 20260502182047 | 8 | 317 | 3.2 | 6.4 | 0.00 | 0.00 | 0.00 | 54 | 1016.7 |
| 20260502181534 | 8 | 342 | 1.6 | 6.4 | 0.00 | 0.00 | 0.00 | 54 | 1016.7 |
| 20260502181041 | 8 | 273 | 1.6 | 6.4 | 0.00 | 0.00 | 0.00 | 57 | 1016.7 |
| 20260502180552 | 8 | 306 | 1.6 | 4.8 | 0.00 | 0.00 | 0.00 | 60 | 1016.8 |
| 20260502164046 | 6 | 333 | 1.6 | 8.0 | 0.00 | 0.05 | 0.00 | 69 | 1017.3 |
| 20260502163552 | 6 | 325 | 3.2 | 6.4 | 0.00 | 0.05 | 0.00 | 68 | 1017.3 |
| 20260502163037 | 6 | 246 | 3.2 | 6.4 | 0.00 | 0.05 | 0.00 | 74 | 1017.2 |
| 20260502162543 | 6 | 319 | 0.0 | 3.2 | 0.00 | 0.05 | 0.00 | 76 | 1017.3 |
| 20260502162053 | 6 | 319 | 0.0 | 3.2 | 0.00 | 0.05 | 0.00 | 75 | 1017.3 |
| 20260502161538 | 6 | 319 | 0.0 | 4.8 | 0.00 | 0.05 | 0.00 | 75 | 1017.4 |
| 20260502161045 | 6 | 319 | 0.0 | 4.8 | 0.00 | 0.05 | 0.00 | 75 | 1017.3 |
| 20260502160551 | 6 | 69 | 0.0 | 3.2 | 0.00 | 0.05 | 0.00 | 76 | 1017.4 |
| 20260502152048 | 5 | 9 | 0.0 | 4.8 | 0.00 | 0.00 | 0.00 | 80 | 1017.2 |
| 20260502151534 | 5 | 32 | 0.0 | 3.2 | 0.00 | 0.00 | 0.00 | 81 | 1017.2 |
| 20260502151040 | 5 | 55 | 1.6 | 3.2 | 0.00 | 0.00 | 0.00 | 81 | 1017.1 |
| 20260502150545 | 5 | 50 | 0.0 | 3.2 | 0.00 | 0.00 | 0.00 | 82 | 1017.1 |
| 20260502130548 | 4 | 5 | 3.2 | 6.4 | 0.00 | 0.00 | 0.00 | 84 | 1016.5 |
| 20260502123548 | 4 | 355 | 0.0 | 0.0 | 0.00 | 0.00 | 0.00 | 88 | 1016.3 |
| 20260502123035 | 4 | 334 | 0.0 | 0.0 | 0.00 | 0.00 | 0.00 | 88 | 1016.4 |
| 20260502122537 | 4 | 327 | 0.0 | 0.0 | 0.00 | 0.00 | 0.00 | 88 | 1016.4 |
| 20260502122109 | 4 | 326 | 0.0 | 0.0 | 0.00 | 0.00 | 0.00 | 89 | 1016.4 |
| 20260502121534 | 4 | 326 | 0.0 | 0.0 | 0.00 | 0.00 | 0.00 | 89 | 1016.4 |
| 20260502121039 | 4 | 326 | 0.0 | 0.0 | 0.00 | 0.00 | 0.00 | 90 | 1016.4 |
| 20260502120545 | 4 | 327 | 0.0 | 0.0 | 0.00 | 0.00 | 0.00 | 90 | 1016.4 |
| 20260502115538 | 3 | 327 | 0.0 | 0.0 | 0.00 | 0.00 | 0.00 | 90 | 1016.4 |
| 20260502115042 | 3 | 327 | 0.0 | 0.0 | 0.00 | 0.00 | 0.00 | 90 | 1016.3 |
| 20260502114544 | 3 | 327 | 0.0 | 0.0 | 0.00 | 0.00 | 0.00 | 91 | 1016.1 |
| 20260502114050 | 3 | 327 | 0.0 | 0.0 | 0.00 | 0.00 | 0.00 | 91 | 1016.2 |
| 20260502113535 | 3 | 326 | 0.0 | 0.0 | 0.00 | 0.00 | 0.00 | 91 | 1016.2 |
| 20260502113042 | 3 | 326 | 0.0 | 0.0 | 0.00 | 0.00 | 0.00 | 91 | 1016.1 |
| 20260502112548 | 3 | 341 | 0.0 | 0.0 | 0.00 | 0.00 | 0.00 | 91 | 1016.1 |
| 20260502112034 | 3 | 341 | 0.0 | 0.0 | 0.00 | 0.00 | 0.00 | 91 | 1016.1 |
| 20260502111541 | 3 | 341 | 0.0 | 0.0 | 0.00 | 0.00 | 0.00 | 91 | 1016.1 |
| 20260502111047 | 3 | 341 | 0.0 | 0.0 | 0.00 | 0.00 | 0.00 | 91 | 1016.0 |
| 20260502110552 | 3 | 341 | 0.0 | 0.0 | 0.00 | 0.00 | 0.00 | 91 | 1015.9 |
| 20260502105548 | 3 | 341 | 0.0 | 0.0 | 0.00 | 0.00 | 0.00 | 91 | 1015.8 |
| 20260502105034 | 3 | 341 | 0.0 | 0.0 | 0.00 | 0.00 | 0.00 | 91 | 1015.7 |
| 20260502104539 | 3 | 341 | 0.0 | 0.0 | 0.00 | 0.00 | 0.00 | 91 | 1015.7 |
| 20260502104046 | 3 | 341 | 0.0 | 0.0 | 0.00 | 0.00 | 0.00 | 91 | 1015.8 |
| 20260502103532 | 3 | 341 | 0.0 | 0.0 | 0.00 | 0.00 | 0.00 | 91 | 1015.7 |
| 20260502103059 | 3 | 341 | 0.0 | 0.0 | 0.00 | 0.00 | 0.00 | 91 | 1015.7 |
| 20260502102539 | 3 | 341 | 0.0 | 0.0 | 0.00 | 0.00 | 0.00 | 91 | 1015.6 |
| 20260502102046 | 3 | 341 | 0.0 | 0.0 | 0.00 | 0.00 | 0.00 | 91 | 1015.7 |
| 20260502101533 | 3 | 340 | 0.0 | 0.0 | 0.00 | 0.00 | 0.00 | 91 | 1015.6 |
| 20260502101040 | 3 | 340 | 0.0 | 0.0 | 0.00 | 0.00 | 0.00 | 91 | 1015.6 |
| 20260502100545 | 3 | 340 | 0.0 | 0.0 | 0.00 | 0.00 | 0.00 | 91 | 1015.7 |
| 20260502091042 | 3 | 315 | 0.0 | 0.0 | 0.00 | 0.00 | 0.00 | 90 | 1015.4 |
| 20260502090548 | 3 | 322 | 0.0 | 0.0 | 0.00 | 0.00 | 0.00 | 89 | 1015.4 |
| 20260502071532 | 3 | 307 | 0.0 | 0.0 | 0.00 | 0.00 | 0.00 | 89 | 1014.8 |
| 20260502071042 | 3 | 307 | 0.0 | 0.0 | 0.00 | 0.00 | 0.00 | 89 | 1014.8 |
| 20260502070547 | 3 | 307 | 0.0 | 0.0 | 0.00 | 0.00 | 0.00 | 89 | 1014.9 |
| 20260502070032 | 3 | 307 | 0.0 | 0.0 | 0.00 | 0.00 | 0.00 | 90 | 1014.8 |
| 20260502065538 | 3 | 307 | 0.0 | 1.6 | 0.00 | 0.00 | 0.00 | 90 | 1014.9 |
| 20260502065113 | 3 | 307 | 0.0 | 1.6 | 0.00 | 0.00 | 0.00 | 90 | 1014.9 |
| 20260502064537 | 4 | 307 | 0.0 | 1.6 | 0.00 | 0.00 | 0.00 | 90 | 1014.9 |
| 20260502064044 | 4 | 307 | 0.0 | 1.6 | 0.00 | 0.00 | 0.00 | 90 | 1014.9 |
| 20260502063551 | 4 | 307 | 0.0 | 1.6 | 0.00 | 0.00 | 0.00 | 91 | 1015.1 |
| 20260502063037 | 3 | 309 | 0.0 | 0.0 | 0.00 | 0.00 | 0.00 | 91 | 1015.2 |
| 20260502062546 | 4 | 309 | 0.0 | 1.6 | 0.00 | 0.00 | 0.00 | 90 | 1015.0 |
| 20260502062052 | 3 | 309 | 0.0 | 1.6 | 0.00 | 0.00 | 0.00 | 91 | 1015.1 |
| 20260502061538 | 3 | 309 | 0.0 | 0.0 | 0.00 | 0.00 | 0.00 | 90 | 1015.0 |
| 20260502061046 | 3 | 309 | 0.0 | 1.6 | 0.00 | 0.00 | 0.00 | 90 | 1015.0 |
| 20260502060534 | 3 | 309 | 0.0 | 1.6 | 0.00 | 0.00 | 0.00 | 90 | 1015.1 |
| 20260502060037 | 3 | 309 | 0.0 | 0.0 | 0.00 | 0.00 | 0.00 | 89 | 1015.2 |
| 20260502055608 | 3 | 309 | 0.0 | 0.0 | 0.00 | 0.00 | 0.00 | 89 | 1015.3 |
| 20260502055034 | 3 | 309 | 0.0 | 0.0 | 0.00 | 0.00 | 0.00 | 89 | 1015.2 |
| 20260502054541 | 3 | 309 | 0.0 | 0.0 | 0.00 | 0.00 | 0.00 | 88 | 1015.3 |
| 20260502054049 | 3 | 309 | 0.0 | 0.0 | 0.00 | 0.00 | 0.00 | 88 | 1015.2 |
| 20260502053534 | 4 | 309 | 0.0 | 0.0 | 0.00 | 0.00 | 0.00 | 88 | 1015.3 |
| 20260502053041 | 4 | 309 | 0.0 | 0.0 | 0.00 | 0.00 | 0.00 | 88 | 1015.3 |
| 20260502052547 | 4 | 309 | 0.0 | 0.0 | 0.00 | 0.00 | 0.00 | 87 | 1015.3 |
| 20260502052032 | 4 | 309 | 0.0 | 1.6 | 0.00 | 0.00 | 0.00 | 87 | 1015.3 |
| 20260502051539 | 5 | 309 | 0.0 | 1.6 | 0.00 | 0.00 | 0.00 | 87 | 1015.2 |
| 20260502051044 | 5 | 309 | 0.0 | 1.6 | 0.00 | 0.00 | 0.00 | 87 | 1015.3 |
| 20260502050551 | 5 | 309 | 0.0 | 8.0 | 0.00 | 0.00 | 0.00 | 87 | 1015.4 |
| 20260502050036 | 5 | 309 | 1.6 | 8.0 | 0.00 | 0.00 | 0.00 | 87 | 1015.5 |
| 20260502045532 | 5 | 321 | 0.0 | 0.0 | 0.00 | 0.00 | 0.00 | 87 | 1015.4 |
| 20260502045039 | 5 | 321 | 0.0 | 0.0 | 0.00 | 0.00 | 0.00 | 87 | 1015.4 |
| 20260502044543 | 5 | 321 | 0.0 | 0.0 | 0.00 | 0.00 | 0.00 | 87 | 1015.5 |
| 20260502044050 | 5 | 321 | 0.0 | 1.6 | 0.00 | 0.00 | 0.00 | 87 | 1015.5 |
| 20260502043536 | 5 | 321 | 0.0 | 1.6 | 0.00 | 0.00 | 0.00 | 87 | 1015.4 |
| 20260502043109 | 5 | 321 | 0.0 | 1.6 | 0.00 | 0.00 | 0.00 | 87 | 1015.5 |
| 20260502042534 | 5 | 321 | 0.0 | 1.6 | 0.00 | 0.00 | 0.00 | 87 | 1015.5 |
| 20260502042033 | 5 | 321 | 0.0 | 1.6 | 0.00 | 0.00 | 0.00 | 87 | 1015.5 |
| 20260502041542 | 5 | 275 | 0.0 | 1.6 | 0.00 | 0.00 | 0.00 | 87 | 1015.6 |
| 20260502041028 | 5 | 275 | 0.0 | 1.6 | 0.00 | 0.00 | 0.00 | 88 | 1015.6 |
| 20260502040537 | 5 | 249 | 0.0 | 3.2 | 0.00 | 0.00 | 0.00 | 88 | 1015.5 |
| 20260502040045 | 5 | 236 | 0.0 | 3.2 | 0.00 | 0.00 | 1.04 | 88 | 1015.5 |
| 20260502035610 | 5 | 238 | 0.0 | 3.2 | 0.00 | 0.00 | 1.04 | 88 | 1015.5 |
| 20260502035035 | 5 | 246 | 0.0 | 1.6 | 0.00 | 0.00 | 1.04 | 89 | 1015.4 |
| 20260502034602 | 5 | 246 | 0.0 | 1.6 | 0.00 | 0.00 | 1.04 | 89 | 1015.3 |
| 20260502034048 | 5 | 246 | 0.0 | 1.6 | 0.00 | 0.00 | 1.04 | 89 | 1015.3 |
| 20260502033535 | 5 | 247 | 1.6 | 1.6 | 0.00 | 0.00 | 1.04 | 90 | 1015.3 |
| 20260502033106 | 5 | 250 | 0.0 | 0.0 | 0.00 | 0.00 | 1.04 | 90 | 1015.2 |
| 20260502032533 | 5 | 355 | 0.0 | 0.0 | 0.00 | 0.00 | 1.04 | 90 | 1015.2 |
| 20260502032058 | 5 | 355 | 0.0 | 0.0 | 0.00 | 0.00 | 1.04 | 90 | 1015.2 |
| 20260502031543 | 5 | 355 | 0.0 | 0.0 | 0.00 | 0.00 | 1.04 | 90 | 1015.1 |
| 20260502031050 | 5 | 355 | 0.0 | 0.0 | 0.00 | 0.00 | 1.04 | 90 | 1015.0 |
| 20260502030536 | 5 | 355 | 0.0 | 0.0 | 0.00 | 0.00 | 1.04 | 89 | 1015.0 |
| 20260502030042 | 5 | 355 | 0.0 | 0.0 | 0.00 | 0.00 | 1.04 | 89 | 1015.0 |
| 20260502025548 | 5 | 355 | 0.0 | 0.0 | 0.00 | 0.00 | 1.04 | 89 | 1015.0 |
| 20260502025034 | 5 | 355 | 0.0 | 0.0 | 0.00 | 0.00 | 1.04 | 89 | 1015.0 |
| 20260502024604 | 5 | 355 | 0.0 | 0.0 | 0.00 | 0.00 | 1.04 | 89 | 1014.9 |
| 20260502024051 | 5 | 355 | 0.0 | 0.0 | 0.00 | 0.00 | 1.04 | 89 | 1014.8 |
| 20260502023535 | 5 | 355 | 0.0 | 0.0 | 0.00 | 0.00 | 1.04 | 89 | 1014.9 |
| 20260502023036 | 5 | 355 | 0.0 | 0.0 | 0.00 | 0.00 | 1.04 | 89 | 1014.9 |
| 20260502022542 | 5 | 355 | 0.0 | 0.0 | 0.00 | 0.00 | 1.04 | 88 | 1015.0 |
| 20260502022047 | 5 | 355 | 0.0 | 0.0 | 0.00 | 0.00 | 1.04 | 88 | 1015.0 |
| 20260502021534 | 5 | 355 | 0.0 | 0.0 | 0.00 | 0.00 | 1.04 | 88 | 1015.1 |
| 20260502021040 | 5 | 355 | 0.0 | 0.0 | 0.00 | 0.00 | 1.04 | 88 | 1015.0 |
| 20260502020549 | 5 | 355 | 0.0 | 0.0 | 0.00 | 0.00 | 1.04 | 87 | 1014.9 |
| 20260502020034 | 5 | 355 | 0.0 | 0.0 | 0.00 | 0.00 | 1.04 | 87 | 1014.9 |
| 20260502015540 | 5 | 355 | 0.0 | 0.0 | 0.00 | 0.00 | 1.04 | 86 | 1014.8 |
| 20260502015111 | 5 | 355 | 0.0 | 0.0 | 0.00 | 0.00 | 1.04 | 86 | 1014.8 |
| 20260502014536 | 6 | 355 | 0.0 | 0.0 | 0.00 | 0.00 | 1.04 | 85 | 1014.7 |
| 20260502014042 | 6 | 355 | 0.0 | 1.6 | 0.00 | 0.00 | 1.04 | 85 | 1014.7 |
| 20260502013550 | 6 | 355 | 0.0 | 6.4 | 0.00 | 0.00 | 1.04 | 84 | 1014.7 |
| 20260502013035 | 6 | 355 | 3.2 | 6.4 | 0.00 | 0.00 | 1.04 | 84 | 1014.7 |
| 20260502012540 | 6 | 351 | 1.6 | 6.4 | 0.00 | 0.00 | 1.04 | 84 | 1014.5 |
| 20260502012047 | 6 | 329 | 1.6 | 3.2 | 0.00 | 0.00 | 1.04 | 84 | 1014.4 |
| 20260502011554 | 6 | 331 | 1.6 | 3.2 | 0.00 | 0.00 | 1.04 | 84 | 1014.4 |
| 20260502011035 | 6 | 251 | 0.0 | 1.6 | 0.00 | 0.00 | 1.04 | 83 | 1014.3 |
| 20260502010539 | 6 | 251 | 0.0 | 0.0 | 0.00 | 0.00 | 1.04 | 83 | 1014.3 |
| 20260502010109 | 6 | 251 | 0.0 | 1.6 | 0.00 | 0.00 | 1.04 | 82 | 1014.1 |
| 20260502005553 | 6 | 251 | 0.0 | 1.6 | 0.00 | 0.00 | 1.04 | 82 | 1014.1 |
| 20260502005038 | 7 | 251 | 0.0 | 0.0 | 0.00 | 0.00 | 1.04 | 82 | 1014.0 |
| 20260502004544 | 7 | 251 | 0.0 | 0.0 | 0.00 | 0.00 | 1.04 | 81 | 1014.0 |
| 20260502004050 | 7 | 251 | 0.0 | 3.2 | 0.00 | 0.00 | 1.04 | 80 | 1014.0 |
| 20260502003601 | 7 | 251 | 0.0 | 3.2 | 0.00 | 0.00 | 1.04 | 80 | 1013.9 |
| 20260502003046 | 7 | 280 | 0.0 | 1.6 | 0.00 | 0.00 | 1.04 | 79 | 1013.9 |
| 20260502002532 | 7 | 232 | 0.0 | 1.6 | 0.00 | 0.00 | 1.04 | 79 | 1013.9 |
| 20260502002038 | 7 | 209 | 0.0 | 3.2 | 0.00 | 0.00 | 1.04 | 78 | 1013.9 |
| 20260502001542 | 7 | 223 | 0.0 | 3.2 | 0.00 | 0.00 | 1.04 | 78 | 1013.8 |
| 20260502001109 | 7 | 311 | 0.0 | 1.6 | 0.00 | 0.00 | 1.04 | 78 | 1013.8 |
| 20260502000534 | 7 | 196 | 0.0 | 3.2 | 0.00 | 0.00 | 1.04 | 78 | 1013.7 |
| 20260502000043 | 7 | 196 | 0.0 | 3.2 | 0.00 | 0.00 | 1.04 | 77 | 1013.7 |
| 20260501235548 | 7 | 286 | 0.0 | 4.8 | 0.00 | 0.00 | 1.04 | 78 | 1013.7 |
| 20260501235035 | 7 | 213 | 1.6 | 4.8 | 0.00 | 0.00 | 1.04 | 79 | 1013.6 |
| 20260501234541 | 7 | 194 | 0.0 | 3.2 | 0.00 | 0.00 | 1.04 | 79 | 1013.6 |
| 20260501234047 | 7 | 241 | 1.6 | 3.2 | 0.00 | 0.00 | 1.04 | 80 | 1013.6 |
| 20260501233555 | 7 | 180 | 0.0 | 3.2 | 0.00 | 0.00 | 1.04 | 80 | 1013.7 |
| 20260501233041 | 7 | 282 | 0.0 | 6.4 | 0.00 | 0.00 | 1.04 | 79 | 1013.7 |
| 20260501232548 | 7 | 221 | 1.6 | 6.4 | 0.00 | 0.00 | 1.04 | 79 | 1013.6 |
| 20260501232033 | 7 | 164 | 1.6 | 4.8 | 0.00 | 0.00 | 1.04 | 79 | 1013.6 |
| 20260501231539 | 7 | 162 | 1.6 | 3.2 | 0.00 | 0.00 | 1.04 | 80 | 1013.6 |
| 20260501231046 | 7 | 162 | 1.6 | 3.2 | 0.00 | 0.00 | 1.04 | 81 | 1013.6 |
| 20260501230532 | 7 | 175 | 0.0 | 4.8 | 0.00 | 0.00 | 1.04 | 80 | 1013.6 |
| 20260501230040 | 7 | 174 | 1.6 | 4.8 | 0.00 | 0.00 | 1.04 | 79 | 1013.7 |
| 20260501225545 | 7 | 167 | 1.6 | 3.2 | 0.00 | 0.00 | 1.04 | 80 | 1013.7 |
| 20260501225032 | 7 | 286 | 0.0 | 3.2 | 0.00 | 0.00 | 1.04 | 80 | 1013.7 |
| 20260501224555 | 7 | 173 | 0.0 | 3.2 | 0.00 | 0.00 | 1.04 | 79 | 1013.7 |
| 20260501224042 | 7 | 174 | 1.6 | 4.8 | 0.00 | 0.00 | 1.04 | 80 | 1013.7 |
| 20260501223547 | 7 | 187 | 1.6 | 4.8 | 0.00 | 0.00 | 1.04 | 79 | 1013.6 |
| 20260501223053 | 7 | 186 | 0.0 | 1.6 | 0.00 | 0.00 | 1.04 | 79 | 1013.7 |
| 20260501222538 | 7 | 187 | 0.0 | 3.2 | 0.00 | 0.00 | 1.04 | 79 | 1013.6 |
| 20260501222047 | 7 | 187 | 0.0 | 3.2 | 0.00 | 0.00 | 1.04 | 79 | 1013.7 |
| 20260501221535 | 8 | 173 | 0.0 | 1.6 | 0.00 | 0.00 | 1.04 | 79 | 1013.6 |
| 20260501221041 | 8 | 202 | 0.0 | 1.6 | 0.00 | 0.00 | 1.04 | 77 | 1013.5 |
| 20260501220550 | 8 | 202 | 0.0 | 3.2 | 0.00 | 0.00 | 1.04 | 78 | 1013.5 |
| 20260501215549 | 8 | 184 | 1.6 | 3.2 | 0.00 | 0.00 | 1.04 | 78 | 1013.5 |
| 20260501215035 | 8 | 191 | 0.0 | 3.2 | 0.00 | 0.00 | 1.04 | 79 | 1013.5 |
| 20260501214544 | 8 | 5 | 1.6 | 3.2 | 0.00 | 0.00 | 1.04 | 80 | 1013.5 |
| 20260501214033 | 8 | 5 | 0.0 | 0.0 | 0.00 | 0.00 | 1.04 | 79 | 1013.5 |
| 20260501213558 | 8 | 5 | 0.0 | 0.0 | 0.00 | 0.00 | 1.04 | 79 | 1013.6 |
| 20260501213043 | 8 | 5 | 0.0 | 0.0 | 0.00 | 0.00 | 1.04 | 78 | 1013.6 |
| 20260501212549 | 8 | 5 | 0.0 | 0.0 | 0.00 | 0.00 | 1.04 | 78 | 1013.5 |
| 20260501212036 | 8 | 5 | 0.0 | 0.0 | 0.00 | 0.00 | 1.04 | 80 | 1013.5 |
| 20260501211545 | 8 | 5 | 0.0 | 0.0 | 0.00 | 0.00 | 1.04 | 82 | 1013.5 |
| 20260501211052 | 7 | 5 | 0.0 | 0.0 | 0.00 | 0.00 | 1.04 | 84 | 1013.4 |
| 20260501210539 | 7 | 5 | 0.0 | 0.0 | 0.00 | 0.00 | 1.04 | 83 | 1013.3 |
| 20260501210047 | 7 | 5 | 0.0 | 0.0 | 0.00 | 0.00 | 1.04 | 83 | 1013.4 |
| 20260501205534 | 7 | 5 | 0.0 | 0.0 | 0.00 | 0.00 | 1.04 | 83 | 1013.3 |
| 20260501205040 | 7 | 5 | 0.0 | 0.0 | 0.00 | 0.00 | 1.04 | 83 | 1013.3 |
| 20260501204547 | 7 | 5 | 0.0 | 0.0 | 0.00 | 0.00 | 1.04 | 84 | 1013.2 |
| 20260501204034 | 7 | 5 | 0.0 | 0.0 | 0.00 | 0.00 | 1.04 | 84 | 1013.2 |
| 20260501203541 | 7 | 5 | 0.0 | 0.0 | 0.00 | 0.00 | 1.04 | 84 | 1013.3 |
| 20260501203111 | 7 | 5 | 0.0 | 0.0 | 0.00 | 0.00 | 1.04 | 85 | 1013.3 |
| 20260501202557 | 7 | 5 | 0.0 | 0.0 | 0.00 | 0.00 | 1.04 | 85 | 1013.3 |
| 20260501202037 | 7 | 5 | 0.0 | 0.0 | 0.00 | 0.00 | 1.04 | 85 | 1013.4 |
| 20260501201609 | 7 | 5 | 0.0 | 0.0 | 0.00 | 0.00 | 1.04 | 85 | 1013.4 |
| 20260501201034 | 7 | 5 | 0.0 | 0.0 | 0.00 | 0.00 | 1.04 | 87 | 1013.3 |
| 20260501200605 | 7 | 5 | 0.0 | 0.0 | 0.00 | 0.00 | 1.04 | 87 | 1013.2 |
| 20260501200050 | 7 | 5 | 0.0 | 0.0 | 0.00 | 0.00 | 1.04 | 87 | 1013.2 |
| 20260501195556 | 7 | 5 | 0.0 | 0.0 | 0.00 | 0.00 | 1.04 | 87 | 1013.1 |